Regional Weather Roundup
Issued by NWS Little Rock, AR

Home | Current Version | Previous Version | Graphics & Text | Print | Product List | Glossary On
Versions: 1 2 3 4 5 6 7 8 9 10 11 12 13 14 15 16 17 18 19 20 21 22 23 24 25 26 27 28 29 30 31 32 33 34 35 36 37 38 39 40 41 42 43 44 45 46 47 48 49 50
000
ASUS44 KLZK 131105
RWRLZK

WEATHER ROUNDUP FOR ARKANSAS
NATIONAL WEATHER SERVICE LITTLE ROCK AR
500 AM CST SAT FEB 13 2016

NOTE: "FAIR" INDICATES FEW OR NO CLOUDS BELOW 12,000 FEET WITH NO
SIGNIFICANT WEATHER AND/OR OBSTRUCTIONS TO VISIBILITY.

ARZ001-003-010-029-131200-
NORTHWEST ARKANSAS

CITY           SKY/WX    TMP DP  RH WIND       PRES   REMARKS
FAYETTEVILLE   CLOUDY    29  15  56 NE6       30.47S WCI  23
FORT SMITH     CLOUDY    40  21  46 NE7       30.47S
HARRISON       CLOUDY    27  12  53 NE8       30.49R WCI  19
BENTONVILLE    CLOUDY    28   9  43 NE9       30.49R WCI  20
ROGERS         CLOUDY    28  10  46 NE10      30.48F WCI  19
SILOAM SPGS    CLOUDY    28   9  43 NE9       30.48R WCI  20
HIGHFILL       CLOUDY    29  12  49 NE12      30.47R WCI  19
$$

ARZ004-005-016-131200-
NORTH CENTRAL ARKANSAS

CITY           SKY/WX    TMP DP  RH WIND       PRES   REMARKS
BATESVILLE     CLOUDY    28  10  47 N6        30.54R WCI  22
FLIPPIN        CLOUDY    28   5  37 N6        30.52R WCI  22
MTN HOME       CLOUDY    25   8  48 N6        30.52R WCI  18
$$

ARZ040-041-131200-
WEST CENTRAL ARKANSAS

CITY           SKY/WX    TMP DP  RH WIND       PRES   REMARKS
MENA           CLOUDY    43  30  61 E5        30.42R
MOUNT IDA      CLOUDY    41  24  51 CALM      30.43R
$$

ARZ009-017-025-026-028-131200-
NORTHEAST ARKANSAS

CITY           SKY/WX    TMP DP  RH WIND       PRES   REMARKS
JONESBORO      MOCLDY    27   8  44 NE10G20   30.53S WCI  17
NEWPORT        CLEAR     28  15  58 NE13      30.56R WCI  17
WALNUT RIDGE   CLOUDY    27   5  39 NE16      30.56R WCI  14
BLYTHEVILLE    MOCLDY    25  10  53 N22       30.56R WCI  10
$$

ARZ022-023-033-042-044-131200-
CENTRAL ARKANSAS

CITY           SKY/WX    TMP DP  RH WIND       PRES   REMARKS
LITTLE ROCK    CLOUDY    36  13  38 NE12      30.52R
N LITTLE ROCK    N/A     35  14  43 NE9G16    30.52R WCI  27
JACKSONVILLE   CLOUDY    35  11  37 NE8       30.51R WCI  29
SEARCY         CLOUDY    32  16  51 NE14      30.55R WCI  22
HOT SPRINGS    CLOUDY    41  23  48 E13       30.47R
RUSSELLVILLE   CLOUDY    36  17  46 NE8       30.50R
CLINTON        MOCLDY    32  10  40 CALM      30.52S
$$

ARZ036-131200-
EAST ARKANSAS

CITY           SKY/WX    TMP DP  RH WIND       PRES   REMARKS
WEST MEMPHIS   HAZE      27  14  58 NE12G22   30.52R VSB 1/4 WCI  17
$$

ARZ050-053-066-070-073-131200-
SOUTHWEST ARKANSAS

CITY           SKY/WX    TMP DP  RH WIND       PRES   REMARKS
ARKADELPHIA    FAIR      42  25  51 E12       30.47R
CAMDEN         CLOUDY    41  23  48 NE9       30.45R
TEXARKANA      CLEAR     43  28  55 NE7       30.42R
EL DORADO      MOCLDY    41  27  57 NE8       30.43R
DE QUEEN       CLEAR     36  32  85 CALM      30.42R
$$

ARZ056-057-069-131200-
SOUTHEAST ARKANSAS

CITY           SKY/WX    TMP DP  RH WIND       PRES   REMARKS
PINE BLUFF     CLOUDY    36  24  62 NE10      30.51R
STUTTGART      CLOUDY    34  21  60 NE14      30.52R WCI  24
MONTICELLO     CLOUDY    40  25  55 NE8G20    30.46R

$$





USA.gov is the U.S. government's official web portal to all federal, state and local government web resources and services.